Content
SEND FEEDBACK

Daily
Averages
Monthly
Summary
Germany

NORDERNEY ISLAND, GERMANY


Home > Europe > Germany
Elevation: 52 feet     Latitude: 53 43N     Longitude: 007 09E

WEATHER
 
SELECT A DAY
Number of Records: 43,087;   Date Range: 2/20/97 - 9/17/14
 
SHARE

PRINT THIS DATA

[ ← Previous Day ]
WEATHER ALMANAC - JANUARY 23, 2013
[ Next Day → ]
[ °C ]   °F
Weather ElementAverageHighLow
Temperature26.1 °F30.2 °F (2:20 pm)21.2 °F (1:20 am)
Dewpoint21.2 °F24.8 °F (4:20 pm)17.6 °F (1:20 am)
Humidity81.7 %86 % (1:20 am)74 % (12:20 pm)
Barometer29.89 in29.92 in (6:20 pm)29.86 in (1:20 am)
Wind Speed6.4 mph8.1 mph (1:20 am)
Weather ElementAverage
Visibility5.8 mi
Wind DirectionENE (70.4 °)

Weather ElementTotal
Precipitation---
Heating Degree Days39.3 (Base 65)
Averaged from 23 records on January 23, 2013
WEATHER CONDITIONS BREAKOUT
WIND DIRECTION BREAKOUT
WEATHER BY HOUR - JANUARY 23, 2013
[ °C ]   °F
Local TimeTemperatureDewpointHumidityBarometerVisibilityWind DirectionWind SpeedGust SpeedPrecipitationEventsConditions
1:20 AM21.2 °F17.6 °F86 %29.86 in5.0 miEast (100°)8.1 mphMostly Cloudy
2:20 AM23.0 °F17.6 °F80 %29.86 in5.0 miEast (80°)8.1 mphMostly Cloudy
3:20 AM23.0 °F17.6 °F80 %29.86 in5.0 miEast (80°)8.1 mphMostly Cloudy
4:20 AM23.0 °F17.6 °F80 %29.86 in5.0 miEast (80°)6.9 mphMostly Cloudy
5:20 AM23.0 °F17.6 °F80 %29.86 in6.2 miEast (80°)6.9 mphMostly Cloudy
6:20 AM23.0 °F17.6 °F80 %29.86 in6.2 miEast (80°)6.9 mphMostly Cloudy
7:20 AM23.0 °F17.6 °F80 %29.86 in6.2 miEast (100°)5.8 mphMostly Cloudy
8:20 AM23.0 °F19.4 °F86 %29.86 in5.0 miEast (90°)3.5 mphMostly Cloudy
9:20 AM23.0 °F19.4 °F86 %29.89 in4.3 miENE (70°)4.6 mphMostly Cloudy
10:20 AM24.8 °F19.4 °F80 %29.89 in5.0 miEast (80°)4.6 mphScattered Clouds
11:20 AM26.6 °F21.2 °F80 %29.89 in5.0 miEast (80°)5.8 mphPartly Cloudy
12:20 PM28.4 °F21.2 °F74 %29.89 in6.2 miEast (80°)6.9 mphPartly Cloudy
1:20 PM28.4 °F23.0 °F80 %29.89 in6.2 miEast (90°)5.8 mphPartly Cloudy
2:20 PM30.2 °F23.0 °F75 %29.89 in6.2 miEast (90°)3.5 mphScattered Clouds
3:20 PM30.2 °F23.0 °F75 %29.89 in6.2 miENE (60°)8.1 mphScattered Clouds
4:20 PM30.2 °F24.8 °F80 %29.89 in6.2 miNE (50°)8.1 mphScattered Clouds
5:20 PM28.4 °F24.8 °F86 %29.89 in6.2 miNE (50°)5.8 mphScattered Clouds
6:20 PM28.4 °F24.8 °F86 %29.92 in6.2 miNE (50°)5.8 mphMostly Cloudy
7:20 PM28.4 °F24.8 °F86 %29.92 in6.2 miNE (40°)6.9 mphMostly Cloudy
8:20 PM28.4 °F24.8 °F86 %29.92 in6.2 miNE (40°)6.9 mphMostly Cloudy
9:20 PM28.4 °F24.8 °F86 %29.92 in6.2 miNE (50°)6.9 mphMostly Cloudy
10:20 PM28.4 °F23.0 °F80 %29.92 in6.2 miNE (40°)6.9 mphMostly Cloudy
11:20 PM26.6 °F23.0 °F86 %29.92 in6.2 miENE (60°)5.8 mphMostly Cloudy
Hourly data recorded from EDWJ, located miles away from Norderney Island, Germany







STORIES FROM OUR PARTNERS